CGPZT CYXU-CYXU

Flight info

Callsign CGPZT
Flight time 0h 3m
Altitude
Route VFR CIRCUITS
Aircraft C172

Departure

Time 2026-04-25 23:57
Airport London International Airport (CYXU)

Arrival

Time 2026-04-26 00:00
Airport London International Airport (CYXU)
Time Latitude Longitude Altitude Speed Heading
2026-04-25 23:52 43.03542 -81.16284 908 ft 0 kts 110°
2026-04-25 23:53 43.03542 -81.16285 908 ft 0 kts 110°
2026-04-25 23:54 43.03541 -81.16281 908 ft 3 kts 101°
2026-04-25 23:54 43.03560 -81.16247 908 ft 7 kts 351°
2026-04-25 23:54 43.03610 -81.16258 910 ft 8 kts 352°
2026-04-25 23:55 43.03658 -81.16270 910 ft 8 kts 349°
2026-04-25 23:55 43.03717 -81.16285 910 ft 0 kts 348°
2026-04-25 23:56 43.03751 -81.16294 911 ft 13 kts 351°
2026-04-25 23:56 43.03826 -81.16229 911 ft 14 kts 79°
2026-04-25 23:56 43.03874 -81.15881 910 ft 61 kts 79°
2026-04-25 23:56 43.03995 -81.15247 1048 ft 76 kts 71°
2026-04-25 23:57 43.04114 -81.14569 1343 ft 72 kts 86°
2026-04-25 23:57 43.03924 -81.13962 1618 ft 78 kts 132°
2026-04-25 23:57 43.03376 -81.13696 1914 ft 81 kts 164°
2026-04-25 23:57 43.02824 -81.14080 1924 ft 103 kts 243°
2026-04-25 23:58 43.02705 -81.15081 1896 ft 111 kts 275°
2026-04-25 23:58 43.02698 -81.16163 1898 ft 117 kts 268°
2026-04-25 23:58 43.02483 -81.17236 1945 ft 119 kts 250°
2026-04-25 23:58 43.02407 -81.18334 1943 ft 116 kts 294°
2026-04-25 23:59 43.02863 -81.19042 1945 ft 89 kts 349°
2026-04-25 23:59 43.03413 -81.18926 1793 ft 75 kts 45°
2026-04-25 23:59 43.03525 -81.18304 1549 ft 67 kts 79°
2026-04-25 23:59 43.03610 -81.17693 1307 ft 65 kts 75°
2026-04-26 00:00 43.03700 -81.17080 1154 ft 64 kts 77°
2026-04-26 00:00 43.03785 -81.16498 994 ft 61 kts 75°
2026-04-26 00:00 43.03859 -81.15988 911 ft 45 kts 75°
2026-04-26 00:00 43.03916 -81.15597 913 ft 56 kts 81°
2026-04-26 00:01 43.04007 -81.14967 1051 ft 71 kts 75°
2026-04-26 00:01 43.04157 -81.14348 1332 ft 66 kts 63°
2026-04-26 00:01 43.04238 -81.13736 1567 ft 76 kts 112°
2026-04-26 00:01 43.03731 -81.13373 1820 ft 85 kts 154°
2026-04-26 00:02 43.03098 -81.13500 1845 ft 110 kts 213°
2026-04-26 00:02 43.02712 -81.14400 1862 ft 114 kts 262°
2026-04-26 00:02 43.02573 -81.15485 1878 ft 116 kts 264°
2026-04-26 00:02 43.02369 -81.16552 1926 ft 112 kts 258°
2026-04-26 00:03 43.02212 -81.17512 1960 ft 95 kts 273°
2026-04-26 00:03 43.02373 -81.18357 1838 ft 87 kts 319°
2026-04-26 00:03 43.02850 -81.18747 1706 ft 76 kts
2026-04-26 00:03 43.03307 -81.18538 1514 ft 72 kts 45°
2026-04-26 00:04 43.03564 -81.17961 1373 ft 70 kts 72°
2026-04-26 00:04 43.03667 -81.17325 1199 ft 68 kts 75°
2026-04-26 00:04 43.03760 -81.16704 1061 ft 68 kts 77°
2026-04-26 00:04 43.03842 -81.16118 922 ft 53 kts 76°
2026-04-26 00:05 43.03900 -81.15729 911 ft 32 kts 81°
2026-04-26 00:05 43.03958 -81.15300 932 ft 63 kts 77°
2026-04-26 00:05 43.04072 -81.14660 1115 ft 72 kts 71°
2026-04-26 00:05 43.04059 -81.14000 1371 ft 79 kts 112°
2026-04-26 00:06 43.03608 -81.13513 1644 ft 88 kts 145°
2026-04-26 00:06 43.03001 -81.13554 1848 ft 102 kts 221°
2026-04-26 00:06 43.02671 -81.14464 1875 ft 112 kts 264°
2026-04-26 00:06 43.02602 -81.15539 1879 ft 115 kts 271°
2026-04-26 00:07 43.02430 -81.16604 1926 ft 117 kts 248°
2026-04-26 00:07 43.02099 -81.17575 1937 ft 110 kts 252°
2026-04-26 00:07 43.02174 -81.18458 1887 ft 94 kts 320°
2026-04-26 00:07 43.02684 -81.18931 1781 ft 85 kts 343°
2026-04-26 00:08 43.03194 -81.19141 1675 ft 69 kts 29°
2026-04-26 00:08 43.03473 -81.18629 1470 ft 72 kts 70°
2026-04-26 00:08 43.03575 -81.17986 1341 ft 67 kts 73°
2026-04-26 00:08 43.03666 -81.17375 1191 ft 67 kts 75°
2026-04-26 00:09 43.03756 -81.16758 1069 ft 66 kts 75°
2026-04-26 00:09 43.03838 -81.16144 928 ft 62 kts 79°
2026-04-26 00:09 43.03903 -81.15693 911 ft 38 kts 79°
2026-04-26 00:09 43.03968 -81.15233 924 ft 68 kts 78°
2026-04-26 00:10 43.04094 -81.14599 1186 ft 64 kts 69°
2026-04-26 00:10 43.04218 -81.13977 1430 ft 68 kts 85°
2026-04-26 00:10 43.03872 -81.13487 1654 ft 88 kts 158°
2026-04-26 00:10 43.03275 -81.13332 1883 ft 94 kts 189°
2026-04-26 00:11 43.02764 -81.13967 1887 ft 107 kts 252°
2026-04-26 00:11 43.02644 -81.14987 1903 ft 110 kts 272°
2026-04-26 00:11 43.02572 -81.16051 1929 ft 114 kts 265°
2026-04-26 00:11 43.02433 -81.17131 1954 ft 117 kts 260°
2026-04-26 00:12 43.02262 -81.18226 1922 ft 118 kts 266°
2026-04-26 00:12 43.02267 -81.19246 1812 ft 101 kts 303°
2026-04-26 00:12 43.02808 -81.19744 1590 ft 91 kts 353°
2026-04-26 00:12 43.03318 -81.19573 1498 ft 73 kts 55°
2026-04-26 00:13 43.03445 -81.18934 1427 ft 69 kts 78°
2026-04-26 00:13 43.03536 -81.18292 1330 ft 67 kts 78°
2026-04-26 00:13 43.03618 -81.17671 1224 ft 66 kts 81°
2026-04-26 00:13 43.03696 -81.17063 1184 ft 62 kts 78°
2026-04-26 00:14 43.03792 -81.16464 997 ft 67 kts 76°
2026-04-26 00:14 43.03872 -81.15911 885 ft 49 kts 77°
2026-04-26 00:14 43.03935 -81.15480 939 ft 53 kts 76°
2026-04-26 00:14 43.04014 -81.15135 996 ft 62 kts 71°
2026-04-26 00:15 43.04172 -81.14594 1181 ft 58 kts 66°
2026-04-26 00:15 43.04414 -81.13917 1350 ft 75 kts 82°
2026-04-26 00:15 43.04124 -81.13279 1537 ft 90 kts 139°
2026-04-26 00:15 43.03508 -81.12956 1740 ft 102 kts 171°
2026-04-26 00:16 43.03046 -81.13135 1858 ft 112 kts 216°
2026-04-26 00:16 43.02699 -81.14075 1864 ft 117 kts 271°
2026-04-26 00:16 43.02677 -81.15222 1829 ft 120 kts 276°
2026-04-26 00:16 43.02679 -81.16360 1855 ft 121 kts 272°
2026-04-26 00:17 43.02623 -81.17470 1882 ft 111 kts 271°
2026-04-26 00:17 43.02689 -81.18406 1852 ft 87 kts 317°
2026-04-26 00:17 43.03168 -81.18499 1656 ft 71 kts 35°
2026-04-26 00:17 43.03548 -81.18027 1404 ft 70 kts 61°
2026-04-26 00:18 43.03661 -81.17399 1189 ft 68 kts 74°
2026-04-26 00:18 43.03754 -81.16762 1042 ft 69 kts 76°
2026-04-26 00:18 43.03839 -81.16131 896 ft 59 kts 78°
2026-04-26 00:18 43.03902 -81.15695 883 ft 36 kts 79°
2026-04-26 00:19 43.03973 -81.15214 913 ft 67 kts 78°
2026-04-26 00:19 43.04100 -81.14580 1168 ft 67 kts 72°
2026-04-26 00:19 43.04247 -81.13937 1447 ft 72 kts 71°
2026-04-26 00:19 43.04420 -81.13292 1741 ft 70 kts 67°
2026-04-26 00:20 43.04630 -81.12682 1913 ft 82 kts 62°
2026-04-26 00:20 43.04893 -81.11940 1975 ft 88 kts 64°
2026-04-26 00:20 43.05153 -81.11154 2023 ft 94 kts 65°
2026-04-26 00:20 43.05391 -81.10308 2000 ft 103 kts 68°
2026-04-26 00:21 43.05484 -81.09364 1982 ft 107 kts 100°
2026-04-26 00:21 43.04974 -81.08571 1945 ft 120 kts 152°
2026-04-26 00:21 43.04110 -81.08479 1919 ft 127 kts 178°
2026-04-26 00:21 43.03261 -81.08740 1955 ft 126 kts 208°
2026-04-26 00:22 43.02647 -81.09593 1909 ft 130 kts 243°
2026-04-26 00:22 43.02339 -81.10735 1907 ft 128 kts 258°
2026-04-26 00:22 43.02139 -81.11921 1840 ft 131 kts 259°
2026-04-26 00:22 43.01882 -81.13090 1873 ft 125 kts 256°
2026-04-26 00:23 43.01641 -81.14212 1853 ft 123 kts 260°
2026-04-26 00:23 43.01472 -81.15361 1840 ft 119 kts 265°
2026-04-26 00:23 43.01342 -81.16493 1768 ft 125 kts 262°
2026-04-26 00:23 43.01191 -81.17596 1886 ft 111 kts 265°
2026-04-26 00:24 43.01374 -81.18500 1961 ft 97 kts 322°
2026-04-26 00:24 43.01920 -81.18919 1890 ft 87 kts 349°
2026-04-26 00:24 43.02490 -81.19179 1794 ft 80 kts 353°
2026-04-26 00:24 43.03003 -81.19354 1708 ft 70 kts 12°
2026-04-26 00:25 43.03383 -81.19002 1586 ft 71 kts 60°
2026-04-26 00:25 43.03526 -81.18332 1429 ft 74 kts 80°
2026-04-26 00:25 43.03626 -81.17680 1273 ft 70 kts 78°
2026-04-26 00:25 43.03717 -81.17030 1117 ft 70 kts 79°
2026-04-26 00:26 43.03801 -81.16413 933 ft 60 kts 83°
2026-04-26 00:26 43.03861 -81.15964 909 ft 29 kts 78°
2026-04-26 00:26 43.03863 -81.15868 910 ft 4 kts 137°
2026-04-26 00:26 43.03835 -81.15849 909 ft 5 kts 148°
2026-04-26 00:27 43.03797 -81.15806 908 ft 9 kts 134°
2026-04-26 00:27 43.03739 -81.15739 907 ft 12 kts 154°
2026-04-26 00:27 43.03693 -81.15814 907 ft 14 kts 259°
2026-04-26 00:27 43.03675 -81.15933 908 ft 11 kts 257°
2026-04-26 00:28 43.03638 -81.16012 907 ft 11 kts 199°
2026-04-26 00:28 43.03580 -81.16006 905 ft 0 kts 169°